Tracking 19490 objects as of 23-Jan-2019
HD Live streaming from Space Station
objects crossing your sky now

COSMOS 1013

Track COSMOS 1013 now!
10-day predictions
COSMOS 1013 is classified as:


NORAD ID: 10930
Int'l Code: 1978-056A
Perigee: 1,485.8 km
Apogee: 1,560.5 km
Inclination: 74.0 °
Period: 116.3 minutes
Semi major axis: 7894 km
RCS: 0.7053 m2 (medium)
Launch date: June 7, 1978
Source: Commonwealth of Independent States (former USSR) (CIS)
Launch site: PLESETSK MISSILE AND SPACE COMPLEX (PKMTR)
aabbcc
Your satellite tracking list
Your tracking list is empty




NASA's NSSDC Master Catalog

Two Line Element Set (TLE):
1 10930U 78056A   19022.55122733 -.00000014 +00000-0 +62744-5 0  9995
2 10930 074.0266 041.2064 0047341 052.8812 051.6699 12.37779980835737
Source of the keplerian elements: AFSPC